Simultaneous Nadir Overpasses (SNOs) Predictions

Prediction of SNOs between METOP-B and NOAA-19 Satellite Orbit:

Table of predicted SNOs for the next 14.0 days since TLE Epoch: 10/9/2018
Index Date (METOP-B) Time (METOP-B) Lat,Lon (METOP-B) SZA (METOP-B ) Date (NOAA-19) Time (NOAA-19) Lat,Lon (NOAA-19) SZA (NOAA-19 ) Distance(km) Time Diff (sec)
1 10/15/2018 07:28:31 78.72, 79.52 87.58 10/15/2018 07:27:18 78.72, 79.67 87.58 3.48 73
2 10/15/2018 08:19:13 -78.71,-113.20 92.42 10/15/2018 08:18:24 -78.74,-113.18 92.41 2.60 49
3 10/15/2018 09:09:53 78.70, 54.08 87.59 10/15/2018 09:09:19 78.72, 54.18 87.60 3.00 34
4 10/15/2018 10:00:33 -78.73,-138.40 92.37 10/15/2018 10:00:23 -78.70,-138.43 92.40 3.87 10
5 10/15/2018 10:51:14 78.69, 28.65 87.59 10/15/2018 10:51:19 78.72, 28.68 87.63 3.82 5
6 10/15/2018 11:41:55 -78.72,-163.84 92.36 10/15/2018 11:42:24 -78.70,-163.93 92.38 2.97 29
7 10/15/2018 12:32:35 78.71, 3.45 87.65 10/15/2018 12:33:19 78.69, 3.43 87.63 2.70 44
8 10/15/2018 13:23:17 -78.70, 170.73 92.35 10/15/2018 13:24:25 -78.70, 170.58 92.35 3.36 68




NCC Satellite Simultaneous Nadir Overpasses (SNOs) Prediction Service
